Time,TemperatureF,DewpointF,PressureIn,WindDirection,WindDirectionDegrees,WindSpeedMPH,WindSpeedGustMPH,Humidity,HourlyPrecipIn,Conditions,Clouds,dailyrainin,SoftwareType,DateUTC
2013-01-09 01:00:00,20.0,19.0,-100.00,North,-999,0.0,0.0,92,-99.99,,,-99.99,,2013-01-09 08:00:00,
2013-01-09 01:43:00,20.0,19.0,-100.00,North,-999,0.0,0.0,92,-99.99,,,-99.99,,2013-01-09 08:43:00,
2013-01-09 01:53:00,20.0,19.0,-100.00,North,-999,0.0,0.0,92,-99.99,,,-99.99,,2013-01-09 08:53:00,
2013-01-09 02:00:00,18.0,16.0,-100.00,North,-999,0.0,0.0,91,-99.99,,,-99.99,,2013-01-09 09:00:00,
2013-01-09 02:42:00,18.0,16.0,-100.00,North,-999,0.0,0.0,91,-99.99,,,-99.99,,2013-01-09 09:42:00,
2013-01-09 02:53:00,18.0,16.0,-100.00,North,-999,0.0,0.0,91,-99.99,,,-99.99,,2013-01-09 09:53:00,
2013-01-09 03:00:00,20.0,18.0,-100.00,North,-999,0.0,0.0,88,-99.99,,,-99.99,,2013-01-09 10:00:00,
2013-01-09 03:32:00,20.0,18.0,-100.00,North,-999,0.0,0.0,88,-99.99,,,-99.99,,2013-01-09 10:32:00,
2013-01-09 03:42:00,20.0,18.0,-100.00,North,-999,0.0,0.0,88,-99.99,,,-99.99,,2013-01-09 10:42:00,
2013-01-09 03:52:00,20.0,18.0,-100.00,North,-999,0.0,0.0,88,-99.99,,,-99.99,,2013-01-09 10:52:00,
2013-01-09 04:00:00,23.0,15.0,-100.00,North,-999,0.0,0.0,70,-99.99,,,-99.99,,2013-01-09 11:00:00,
2013-01-09 04:42:00,23.0,15.0,-100.00,North,-999,0.0,0.0,70,-99.99,,,-99.99,,2013-01-09 11:42:00,
2013-01-09 04:53:00,23.0,15.0,-100.00,North,-999,0.0,0.0,70,-99.99,,,-99.99,,2013-01-09 11:53:00,
2013-01-09 05:00:00,26.0,7.0,-100.00,SW,218,3.0,8.0,43,-99.99,,,-99.99,,2013-01-09 12:00:00,
2013-01-09 05:33:00,26.0,7.0,-100.00,SW,218,3.0,8.0,43,-99.99,,,-99.99,,2013-01-09 12:33:00,
2013-01-09 05:43:00,26.0,7.0,-100.00,SW,218,3.0,8.0,43,-99.99,,,-99.99,,2013-01-09 12:43:00,
2013-01-09 05:53:00,26.0,7.0,-100.00,SW,218,3.0,8.0,43,-99.99,,,-99.99,,2013-01-09 12:53:00,
2013-01-09 06:00:00,27.0,0.0,-100.00,SW,217,7.0,9.0,30,-99.99,,,-99.99,,2013-01-09 13:00:00,
2013-01-09 06:33:00,27.0,0.0,-100.00,SW,217,7.0,9.0,30,-99.99,,,-99.99,,2013-01-09 13:33:00,
2013-01-09 06:43:00,27.0,0.0,-100.00,SW,217,7.0,9.0,30,-99.99,,,-99.99,,2013-01-09 13:43:00,
2013-01-09 06:53:00,27.0,0.0,-100.00,SW,217,7.0,9.0,30,-99.99,,,-99.99,,2013-01-09 13:53:00,
2013-01-09 07:00:00,30.0,-8.0,-100.00,South,188,9.0,13.0,18,-99.99,,,-99.99,,2013-01-09 14:00:00,
2013-01-09 07:33:00,30.0,-8.0,-100.00,South,188,9.0,13.0,18,-99.99,,,-99.99,,2013-01-09 14:33:00,
2013-01-09 07:43:00,30.0,-8.0,-100.00,South,188,9.0,13.0,18,-99.99,,,-99.99,,2013-01-09 14:43:00,
2013-01-09 07:53:00,30.0,-8.0,-100.00,South,188,9.0,13.0,18,-99.99,,,-99.99,,2013-01-09 14:53:00,
2013-01-09 08:00:00,31.0,-8.0,-100.00,South,187,10.0,12.0,18,-99.99,,,-99.99,,2013-01-09 15:00:00,
2013-01-09 08:33:00,31.0,-8.0,-100.00,South,187,10.0,12.0,18,-99.99,,,-99.99,,2013-01-09 15:33:00,
2013-01-09 08:43:00,31.0,-8.0,-100.00,South,187,10.0,12.0,18,-99.99,,,-99.99,,2013-01-09 15:43:00,
2013-01-09 08:53:00,31.0,-8.0,-100.00,South,187,10.0,12.0,18,-99.99,,,-99.99,,2013-01-09 15:53:00,
2013-01-09 09:00:00,31.0,-6.0,-100.00,SSE,168,9.0,13.0,18,-99.99,,,-99.99,,2013-01-09 16:00:00,
2013-01-09 09:33:00,31.0,-6.0,-100.00,SSE,168,9.0,13.0,18,-99.99,,,-99.99,,2013-01-09 16:33:00,
2013-01-09 09:43:00,31.0,-6.0,-100.00,SSE,168,9.0,13.0,18,-99.99,,,-99.99,,2013-01-09 16:43:00,
2013-01-09 09:53:00,31.0,-6.0,-100.00,SSE,168,9.0,13.0,18,-99.99,,,-99.99,,2013-01-09 16:53:00,
2013-01-09 10:00:00,33.0,-6.0,-100.00,South,187,7.0,21.0,17,-99.99,,,-99.99,,2013-01-09 17:00:00,
2013-01-09 10:33:00,33.0,-6.0,-100.00,South,187,7.0,21.0,17,-99.99,,,-99.99,,2013-01-09 17:33:00,
2013-01-09 10:43:00,33.0,-6.0,-100.00,South,187,7.0,21.0,17,-99.99,,,-99.99,,2013-01-09 17:43:00,
2013-01-09 10:53:00,33.0,-6.0,-100.00,South,187,7.0,21.0,17,-99.99,,,-99.99,,2013-01-09 17:53:00,
2013-01-09 11:00:00,34.0,-6.0,-100.00,SSE,161,14.0,27.0,17,-99.99,,,-99.99,,2013-01-09 18:00:00,
2013-01-09 11:33:00,34.0,-6.0,-100.00,SSE,161,14.0,27.0,17,-99.99,,,-99.99,,2013-01-09 18:33:00,
2013-01-09 11:43:00,34.0,-6.0,-100.00,SSE,161,14.0,27.0,17,-99.99,,,-99.99,,2013-01-09 18:43:00,
2013-01-09 11:53:00,34.0,-6.0,-100.00,SSE,161,14.0,27.0,17,-99.99,,,-99.99,,2013-01-09 18:53:00,
2013-01-09 13:00:00,34.0,-7.0,-100.00,SSE,168,22.0,41.0,16,-99.99,,,-99.99,,2013-01-09 20:00:00,
2013-01-09 13:43:00,34.0,-7.0,-100.00,SSE,168,22.0,41.0,16,-99.99,,,-99.99,,2013-01-09 20:43:00,
2013-01-09 13:53:00,34.0,-7.0,-100.00,SSE,168,22.0,41.0,16,-99.99,,,-99.99,,2013-01-09 20:53:00,
2013-01-09 14:00:00,33.0,-4.0,-100.00,SSE,153,24.0,42.0,19,-99.99,,,-99.99,,2013-01-09 21:00:00,
2013-01-09 14:43:00,33.0,-4.0,-100.00,SSE,153,24.0,42.0,19,-99.99,,,-99.99,,2013-01-09 21:43:00,
2013-01-09 14:53:00,33.0,-4.0,-100.00,SSE,153,24.0,42.0,19,-99.99,,,-99.99,,2013-01-09 21:53:00,
2013-01-09 15:00:00,33.0,-1.0,-100.00,SSE,149,30.0,47.0,23,-99.99,,,-99.99,,2013-01-09 22:00:00,
2013-01-09 15:43:00,33.0,-1.0,-100.00,SSE,149,30.0,47.0,23,-99.99,,,-99.99,,2013-01-09 22:43:00,
2013-01-09 15:52:00,33.0,-1.0,-100.00,SSE,149,30.0,47.0,23,-99.99,,,-99.99,,2013-01-09 22:52:00,
2013-01-09 16:00:00,32.0,3.0,-100.00,SSE,149,34.0,51.0,28,-99.99,,,-99.99,,2013-01-09 23:00:00,
2013-01-09 16:43:00,32.0,3.0,-100.00,SSE,149,34.0,51.0,28,-99.99,,,-99.99,,2013-01-09 23:43:00,
2013-01-09 16:53:00,32.0,3.0,-100.00,SSE,149,34.0,51.0,28,-99.99,,,-99.99,,2013-01-09 23:53:00,
2013-01-09 17:00:00,31.0,4.0,-100.00,SSE,156,25.0,45.0,31,-99.99,,,-99.99,,2013-01-10 00:00:00,
2013-01-09 17:33:00,31.0,4.0,-100.00,SSE,156,25.0,45.0,31,-99.99,,,-99.99,,2013-01-10 00:33:00,
2013-01-09 17:43:00,31.0,4.0,-100.00,SSE,156,25.0,45.0,31,-99.99,,,-99.99,,2013-01-10 00:43:00,
2013-01-09 17:53:00,31.0,4.0,-100.00,SSE,156,25.0,45.0,31,-99.99,,,-99.99,,2013-01-10 00:53:00,
2013-01-09 18:00:00,31.0,4.0,-100.00,SSE,153,26.0,43.0,31,-99.99,,,-99.99,,2013-01-10 01:00:00,
2013-01-09 18:33:00,31.0,4.0,-100.00,SSE,153,26.0,43.0,31,-99.99,,,-99.99,,2013-01-10 01:33:00,
2013-01-09 18:43:00,31.0,4.0,-100.00,SSE,153,26.0,43.0,31,-99.99,,,-99.99,,2013-01-10 01:43:00,
2013-01-09 18:53:00,31.0,4.0,-100.00,SSE,153,26.0,43.0,31,-99.99,,,-99.99,,2013-01-10 01:53:00,
2013-01-09 19:00:00,31.0,5.0,-100.00,South,177,21.0,39.0,32,-99.99,,,-99.99,,2013-01-10 02:00:00,
2013-01-09 19:33:00,31.0,5.0,-100.00,South,177,21.0,39.0,32,-99.99,,,-99.99,,2013-01-10 02:33:00,
2013-01-09 19:43:00,31.0,5.0,-100.00,South,177,21.0,39.0,32,-99.99,,,-99.99,,2013-01-10 02:43:00,
2013-01-09 19:52:00,31.0,5.0,-100.00,South,177,21.0,39.0,32,-99.99,,,-99.99,,2013-01-10 02:52:00,
2013-01-09 20:00:00,31.0,4.0,-100.00,South,184,20.0,46.0,31,-99.99,,,-99.99,,2013-01-10 03:00:00,
2013-01-09 20:33:00,31.0,4.0,-100.00,South,184,20.0,46.0,31,-99.99,,,-99.99,,2013-01-10 03:33:00,
2013-01-09 20:43:00,31.0,4.0,-100.00,South,184,20.0,46.0,31,-99.99,,,-99.99,,2013-01-10 03:43:00,
2013-01-09 20:52:00,31.0,4.0,-100.00,South,184,20.0,46.0,31,-99.99,,,-99.99,,2013-01-10 03:52:00,
2013-01-09 21:00:00,31.0,4.0,-100.00,South,190,21.0,49.0,31,-99.99,,,-99.99,,2013-01-10 04:00:00,
2013-01-09 21:32:00,31.0,4.0,-100.00,South,190,21.0,49.0,31,-99.99,,,-99.99,,2013-01-10 04:32:00,
2013-01-09 21:43:00,31.0,4.0,-100.00,South,190,21.0,49.0,31,-99.99,,,-99.99,,2013-01-10 04:43:00,
2013-01-09 21:52:00,31.0,4.0,-100.00,South,190,21.0,49.0,31,-99.99,,,-99.99,,2013-01-10 04:52:00,
2013-01-09 22:00:00,31.0,4.0,-100.00,SSW,207,16.0,43.0,31,-99.99,,,-99.99,,2013-01-10 05:00:00,
2013-01-09 22:33:00,31.0,4.0,-100.00,SSW,207,16.0,43.0,31,-99.99,,,-99.99,,2013-01-10 05:33:00,
2013-01-09 22:43:00,31.0,4.0,-100.00,SSW,207,16.0,43.0,31,-99.99,,,-99.99,,2013-01-10 05:43:00,
2013-01-09 22:52:00,31.0,4.0,-100.00,SSW,207,16.0,43.0,31,-99.99,,,-99.99,,2013-01-10 05:52:00,
2013-01-09 23:00:00,31.0,3.0,-100.00,WSW,247,15.0,33.0,30,-99.99,,,-99.99,,2013-01-10 06:00:00,
2013-01-09 23:32:00,31.0,3.0,-100.00,WSW,247,15.0,33.0,30,-99.99,,,-99.99,,2013-01-10 06:32:00,
2013-01-09 23:42:00,31.0,3.0,-100.00,WSW,247,15.0,33.0,30,-99.99,,,-99.99,,2013-01-10 06:42:00,
2013-01-09 23:52:00,31.0,3.0,-100.00,WSW,247,15.0,33.0,30,-99.99,,,-99.99,,2013-01-10 06:52:00,